Regional Weather Roundup
Issued by NWS

Home | Current Version | Previous Version | Text Only | Print | Product List | Glossary On
Versions: 1 2 3 4 5 6 7 8 9 10 11 12 13 14 15 16 17 18 19 20 21 22 23 24 25 26 27 28 29 30 31 32 33 34 35 36 37 38 39 40 41 42 43 44 45 46 47 48 49 50
000
ASCA42 TJSJ 090110
RWRPR
PUERTO RICO/U.S. VIRGIN ISLANDS HOURLY WEATHER ROUNDUP
NATIONAL WEATHER SERVICE SAN JUAN PR
900 PM AST THU DEC 08 2016

PRZ001>002-007>008-010-090200-
PUERTO RICO

CITY           SKY/WX    TMP DP  RH WIND       PRES   REMARKS
SAN JUAN LMM   PTCLDY    81  70  69 E9        30.05R
AGUADILLA      CLEAR     73  66  78 SE8       30.06
CEIBA          PTCLDY    79  72  78 N10       30.06R
$$

VIZ001>002-090200-
U.S. VIRGIN ISLANDS

CITY           SKY/WX    TMP DP  RH WIND       PRES   REMARKS
CHARLOTTE AMA  CLOUDY    81  75  83 NE14G23   30.03R
CHRISTIANSTED  PTCLDY    79  73  83 NE7       30.02R
$$

HOURLY WEATHER ROUNDUP FOR THE NEWS MEDIA

CITY           SKY/WX    TMP DP  RH WIND       PRES   REMARKS
ORLANDO        CLOUDY    67  54  63 N7        30.18R
NEW YORK       PTCLDY    40  17  39 W18G29    29.97S WCI  31
NEWARK         PTCLDY    38  17  42 W15       29.97R WCI  29
CHICAGO        FLURRIES  23  15  71 NW14      30.38R WCI  11
HARTFORD       CLEAR     37  26  64 W7        29.84R WCI  32
BOSTON         PTCLDY    37  23  56 W16G23    29.83S WCI  28
DALLAS         CLOUDY    37  16  42 N9        30.64R WCI  30
PHILADELPHIA   PTCLDY    37  16  42 NW16      30.06R WCI  28
LOS ANGELES    PTCLDY    59  52  77 W9        30.21F
WASHINGTON DC  PTCLDY    35  14  42 NW17G23   30.15R WCI  25


USA.gov is the U.S. government's official web portal to all federal, state and local government web resources and services.